GFSSGP_con_lsi_099.txt.gz
Lid_Strength_Index
-1 -1 1 2 7 7 9 7 6 6 6 4 4 4 5 4 6 8 1 0 -0 -0 -1 -1 -1 -1 -1 -1 -1 -1 -1 -1 -1 -1 -1 -1 -1 -1 -1 -1 -1 -1 -1 -1 -1 -1 -1 -1 -1
0 1 2 4 8 10 9 6 7 6 4 4 4 4 5 5 3 2 2 -0 -0 -0 -1 -1 -1 -1 -1 -1 -1 -1 -1 -1 -1 -1 -1 -1 -1 -1 -1 -1 -1 -1 -1 -1 -1 -1 -1 -1 -1
-1 1 5 7 8 10 9 6 6 5 4 4 4 3 4 4 2 2 0 -0 -1 -0 -1 -1 -1 -1 -1 -1 -1 -1 -1 -0 -1 -1 -1 -1 -1 -1 -1 -1 -1 -1 -1 -1 -1 -1 -1 -1 -1
2 4 5 8 9 7 7 6 6 5 4 4 4 5 3 1 2 1 0 -0 -0 -0 -1 0 -0 -1 -1 -1 -1 -1 -0 -0 0 -0 -1 -1 -1 -1 -1 -1 -1 -1 -1 -1 -1 -1 -1 -1 -1
3 5 9 9 9 7 6 5 5 5 5 5 4 5 4 2 1 0 0 -0 0 -0 -1 -1 -0 -0 -1 -1 -1 -1 -1 -0 -0 -0 -1 -1 -1 -1 -1 -1 -1 -1 -1 -1 -1 -1 -1 -1 -0
6 6 10 10 9 7 6 5 5 5 4 4 5 4 4 1 1 1 -0 -0 -1 -0 -1 -1 -1 -1 -0 -1 -0 -0 -0 -0 -0 -0 -0 -1 -1 -1 -1 -1 -1 -1 -1 -1 -1 -1 -1 -1 -1
6 7 10 9 8 7 6 5 6 6 5 5 4 5 3 2 1 0 0 -0 -1 -1 -1 -1 -1 -1 -0 -0 -0 0 -0 -0 -0 -0 -0 -1 -0 -1 -1 -1 -1 -1 -1 -1 -1 -1 -1 -1 -1
5 6 8 8 9 8 5 6 5 6 6 3 3 5 4 2 1 0 0 0 -0 -0 -0 -1 -1 -1 -1 -1 0 -0 -0 -0 -0 -0 0 0 0 -0 -1 -1 -1 -1 -1 -1 -1 -1 -1 -1 -1
4 8 10 8 8 7 6 7 5 4 5 4 4 3 2 2 1 1 1 1 1 0 -0 -0 -1 -1 -1 -1 -1 -1 -0 -1 -0 -1 0 0 -2 -1 -1 -1 -1 -1 -1 -1 -1 -1 -1 -1 -1
6 9 8 6 5 6 6 7 6 6 6 5 5 3 2 2 2 2 2 3 2 1 1 0 -0 -1 -1 -0 -1 -1 -1 -1 -1 -1 -1 -2 -2 -1 -1 -1 -1 -1 -1 -1 -1 -1 -1 -1 -1
7 8 6 6 5 5 6 6 6 7 7 6 5 4 2 2 2 2 2 2 2 1 1 0 0 -1 -1 -1 -0 -1 -1 -1 -1 -2 -1 -2 -1 -2 -2 -1 -1 -1 -1 -1 -1 -1 -1 -1 -1
8 7 6 6 5 6 6 5 6 6 6 4 4 3 3 3 2 2 2 2 2 1 1 0 -0 -0 -1 -1 -0 -0 -0 -1 -0 -1 -2 -1 -1 -1 -1 -1 -1 -2 -2 -1 -1 -1 -1 -0 -1
8 7 6 6 6 6 6 6 6 6 5 4 4 4 4 4 3 2 1 1 1 1 1 0 0 0 -0 -0 -0 -0 -0 -0 -1 -1 -1 -1 -0 -0 -1 -1 -1 -1 -1 -1 -1 -0 -1 -0 -0
7 7 6 6 6 6 7 7 6 6 5 5 5 5 5 4 4 3 2 1 1 1 1 0 0 0 -0 -0 -0 0 -0 -1 -1 -1 -1 -1 -1 -0 -0 -1 -1 -1 -1 -1 -0 -0 -0 0 -0
7 8 7 7 6 7 6 8 8 5 5 5 5 5 4 4 3 3 2 1 1 1 0 1 1 0 0 -0 -0 -0 -0 -1 -0 -0 -1 -1 -1 -1 -1 -0 -0 -1 -1 -1 -1 -1 -0 0 -0
9 9 11 8 7 7 7 10 6 5 5 5 5 4 4 4 4 3 2 1 1 1 1 0 0 1 0 0 -0 -0 -0 -0 -0 -1 -1 -1 -1 -1 -0 0 -0 -1 -1 -1 -0 0 1 1 0
9 12 11 10 7 7 8 9 6 5 5 5 5 4 4 4 3 3 2 1 1 0 0 1 0 1 1 0 -0 -0 -0 -0 -0 -1 -1 -1 -1 -1 -1 -0 -0 -1 -0 -0 0 0 1 1 1
11 12 10 11 8 7 8 9 7 5 5 5 5 4 4 4 3 3 2 1 1 0 0 0 1 1 0 0 0 0 0 0 -0 -0 -0 -1 -1 -1 -1 -0 -0 -0 0 0 0 1 0 1 1
10 10 11 9 7 8 9 8 7 6 6 6 5 5 4 3 2 2 1 1 1 0 0 1 1 1 1 1 2 2 2 1 0 0 -0 -1 -1 -1 -0 0 1 1 1 1 1 1 1 1 0
9 13 12 9 8 8 9 10 7 6 6 6 5 5 4 3 3 2 2 1 1 1 1 1 1 1 1 1 1 1 1 1 0 -0 -0 -1 -1 -1 -0 0 1 2 2 2 2 1 2 1 1
10 12 11 11 10 9 9 11 10 7 6 6 5 5 4 4 4 3 3 2 1 1 1 1 1 1 1 1 1 1 1 1 1 1 0 0 -0 -1 -0 0 1 2 2 2 2 1 2 3 1
12 9 10 11 11 14 9 15 10 9 8 7 6 6 5 4 3 3 3 2 2 1 1 1 1 1 1 0 1 1 2 3 1 1 0 0 -0 0 1 1 1 2 2 2 2 1 1 1 2
10 8 9 10 11 11 12 13 11 8 10 8 7 5 5 4 3 3 3 2 2 1 1 1 1 1 1 1 1 1 2 1 1 1 1 1 1 0 1 1 2 2 2 2 2 1 1 1 1
8 9 9 10 11 15 12 12 12 11 9 8 6 5 5 4 4 3 2 2 2 1 1 1 1 2 1 1 1 1 1 1 1 1 2 1 1 2 1 0 2 2 2 2 2 0 0 1 1
10 11 15 16 16 16 10 12 11 8 7 7 7 6 5 4 4 4 3 3 3 2 1 1 1 2 2 2 1 1 1 1 1 1 2 2 2 2 2 2 2 2 2 2 2 1 1 1 1
10 11 16 19 19 16 10 13 11 7 6 6 5 5 5 4 4 4 3 3 3 2 2 1 2 3 2 2 1 1 1 1 1 1 1 1 2 1 2 2 3 3 3 2 2 3 3 3 2
10 12 9 15 12 14 12 11 8 7 7 6 6 6 6 5 4 4 4 4 3 3 2 2 2 2 2 2 1 1 1 1 1 1 1 1 1 1 1 2 3 3 3 3 3 3 3 3 3
8 8 13 12 19 17 13 12 14 11 9 7 7 7 6 5 4 5 5 7 5 4 2 1 2 2 2 2 2 1 1 1 0 1 1 1 1 0 1 1 3 3 3 2 3 3 2 3 2
10 11 10 10 12 17 18 16 9 9 7 8 7 6 6 5 6 7 8 10 8 7 2 2 2 2 3 2 2 2 1 1 1 1 1 1 1 1 1 2 2 3 4 4 4 4 4 4 3
8 10 10 15 15 13 15 16 7 6 6 7 7 6 5 6 6 8 10 11 11 11 6 3 2 3 3 2 2 2 1 1 1 1 1 0 1 0 0 1 2 3 3 3 3 4 4 5 4

GFSSGP_con_lsi_102.txt.gz
Lid_Strength_Index
-0 0 1 3 8 8 10 9 6 7 6 4 4 5 5 5 6 9 1 1 0 0 -0 -1 -0 -1 -1 -1 -1 -1 -1 -1 -1 -1 -1 -1 -1 -1 -1 -1 -1 -1 -1 -1 -1 -1 -1 -1 -1
3 1 2 5 10 11 10 7 7 6 5 4 4 4 5 6 3 3 2 0 0 0 -0 -0 -0 -1 -1 -1 -1 -1 -1 -1 -1 -1 -1 -1 -1 -1 -1 -1 -1 -1 -1 -1 -1 -1 -1 -1 -1
2 2 5 8 10 11 10 7 6 5 4 5 5 4 4 4 3 2 1 0 0 0 -0 -0 -0 -0 -1 -1 -1 -1 -1 -0 -1 -1 -1 -1 -1 -1 -1 -1 -1 -1 -1 -1 -1 -1 -1 -1 -1
3 3 5 10 10 8 8 6 6 6 5 4 5 5 3 2 2 1 0 0 0 0 -0 0 -0 -0 -1 -1 -1 -1 -0 -0 -0 -1 -1 -1 -1 -1 -1 -1 -1 -1 -1 -1 -1 -1 -1 -1 -1
3 5 10 11 10 8 6 5 5 6 5 5 5 6 4 2 1 1 1 0 1 0 -0 -0 -0 -0 -1 -1 -1 -1 -0 -0 -0 -0 -1 -1 -1 -1 -1 -1 -1 -1 -1 -1 -1 -1 -1 -0 -0
6 6 11 11 10 8 6 6 6 6 5 5 5 5 4 2 1 1 1 0 0 1 -0 -0 -1 -0 -0 -0 -0 -0 -0 -0 -0 -0 -1 -1 -1 -1 -1 -1 -1 -1 -1 -1 -2 -1 -2 -1 -0
6 8 10 10 9 8 7 4 6 6 6 5 4 6 3 3 1 1 1 0 0 0 0 -0 -0 -1 -0 -0 0 -0 -0 -0 -0 -0 -0 -0 -0 -1 -1 -1 -1 -1 -1 -1 -1 -1 -1 -1 -1
5 7 9 9 9 9 6 5 4 5 6 4 3 6 5 3 1 1 1 1 1 0 0 0 -0 -0 -0 -1 0 0 -0 -0 -0 -0 -0 0 0 -0 -1 -1 -1 -1 -1 -1 -1 -1 -1 -1 -1
4 9 10 9 9 8 5 6 4 4 6 5 4 4 3 2 1 2 2 2 2 1 1 0 0 -0 -0 -0 -1 -0 -0 -0 -0 -0 -0 1 -0 -1 -1 -1 -1 -1 -1 -1 -1 -1 -1 -1 -1
8 9 9 7 7 7 5 5 5 6 6 6 6 4 2 2 2 3 3 3 3 2 1 1 0 0 -0 -0 -0 -0 -1 -0 -0 -1 -1 -1 -1 -0 -1 -1 -1 -1 -1 -1 -1 -1 -1 -1 -1
7 9 7 6 6 6 6 5 5 7 7 6 6 5 3 2 3 3 3 3 3 2 1 1 1 0 0 0 -0 -0 -0 -0 -0 -0 -0 -0 -0 -0 -0 -0 -0 -0 -1 -0 -1 -0 -0 -0 -1
8 7 6 6 6 6 6 5 6 6 6 4 4 4 3 3 3 3 3 2 2 2 2 1 1 0 0 0 0 0 0 -0 0 -0 -0 -0 0 -0 -0 -0 -0 -0 -0 0 -0 -0 -0 -0 -1
8 6 6 6 6 6 5 6 6 6 5 4 5 5 4 4 4 2 2 2 2 2 2 1 1 1 0 0 0 0 0 0 0 -0 -0 -0 0 0 0 -0 -0 -0 -0 0 0 0 -0 -0 -0
6 6 6 6 6 6 7 7 6 6 5 5 5 5 5 5 4 4 3 2 2 2 2 1 1 1 0 1 0 0 0 -0 -0 -0 -0 -0 -0 0 0 0 0 0 0 -0 -0 0 0 0 -0
5 8 7 7 6 7 6 8 8 5 5 6 5 5 5 5 5 4 3 2 2 1 1 2 1 0 1 1 0 0 0 0 0 -0 -0 -0 -0 -0 0 0 0 0 0 0 0 0 -0 0 -0
7 7 10 7 7 6 7 10 7 6 6 6 6 5 5 5 5 4 3 3 2 1 2 1 1 1 1 1 0 0 0 0 0 -0 -0 -0 -0 -0 0 0 0 0 0 -0 0 0 1 1 1
8 11 10 9 7 7 8 9 7 5 6 6 6 5 5 4 4 4 3 3 2 1 1 2 1 1 1 1 1 0 0 0 0 -0 -0 -0 -0 -0 -0 0 0 0 0 0 0 1 1 1 1
11 11 10 10 8 7 8 9 7 6 6 6 5 5 5 5 4 3 3 3 2 2 1 2 1 1 1 1 1 1 1 0 0 0 0 0 -0 -0 -0 0 0 0 0 1 1 1 1 1 1
9 10 10 9 8 9 9 9 8 7 6 6 5 5 5 4 3 3 2 2 1 1 1 2 2 1 1 2 2 2 2 1 1 0 0 0 0 0 0 0 0 0 1 1 1 1 1 2 1
9 10 10 10 8 9 10 10 8 6 7 6 6 6 5 4 3 3 2 2 2 2 1 1 2 2 1 1 1 1 1 1 1 0 0 0 0 0 0 0 0 0 1 1 1 1 2 2 1
9 10 11 11 10 10 11 12 10 7 6 6 5 5 5 5 4 3 3 2 2 2 2 2 1 2 1 1 1 1 1 1 1 1 1 1 0 0 0 0 1 1 1 1 1 1 2 3 2
11 8 9 10 14 17 10 17 10 8 8 8 6 5 5 5 4 3 3 3 2 2 1 1 1 1 1 1 2 2 3 3 2 2 1 1 0 0 0 0 0 1 1 1 2 1 1 2 3
10 7 9 9 13 14 13 16 12 9 9 9 7 5 5 4 4 4 3 3 2 2 2 2 1 1 1 1 1 2 2 2 2 1 1 1 1 1 1 1 0 1 1 2 2 2 1 1 2
7 9 10 10 12 19 14 14 12 10 9 8 6 6 5 5 4 4 3 3 3 2 2 2 2 2 2 2 1 2 2 2 2 2 2 2 2 1 1 1 1 0 1 2 2 1 2 2 2
8 11 16 18 20 19 12 13 12 9 8 7 7 6 5 5 5 5 5 4 4 3 2 2 2 2 2 2 2 2 2 2 2 2 2 2 2 2 2 1 1 1 2 2 2 1 1 2 2
10 11 16 19 18 16 12 17 13 8 6 6 6 6 5 5 6 6 6 5 6 4 3 3 3 2 2 2 2 2 1 2 2 2 2 2 2 2 2 2 1 1 2 2 2 1 1 2 2
11 13 9 17 15 19 15 14 10 9 7 7 7 6 6 5 6 6 7 8 8 6 5 5 5 2 2 2 2 2 2 2 2 1 1 1 1 1 1 2 2 1 2 2 3 3 3 3 3
9 8 16 16 22 23 16 15 16 12 9 8 8 7 7 5 6 7 9 10 9 9 8 6 3 3 3 2 2 2 2 1 1 1 2 1 1 1 2 2 2 2 2 2 2 3 3 3 3
11 13 13 13 14 19 20 19 11 11 10 9 8 7 7 7 7 8 10 10 11 11 11 10 3 3 2 2 2 2 2 2 1 1 1 1 1 1 1 2 3 3 2 2 3 2 3 2 2
9 11 11 17 15 15 18 18 9 9 8 8 8 8 8 8 8 9 10 11 12 13 13 12 11 3 2 2 2 2 2 2 2 2 1 1 1 1 1 1 2 3 3 2 3 3 3 3 4

GFSSGP_con_lsi_105.txt.gz
Lid_Strength_Index
2 3 4 6 13 14 16 13 9 9 9 8 6 7 8 6 8 11 2 1 1 1 -0 -0 -0 -0 -1 -1 -1 -1 -1 -1 -1 -1 -1 -1 -1 -1 -1 -1 -1 -1 -1 -1 -1 -1 -1 -1 -1
4 4 6 9 15 18 16 10 10 9 7 6 5 6 7 7 4 4 3 1 0 0 -0 -0 -0 -0 -0 -1 -1 -1 -1 -1 -1 -1 -1 -1 -1 -1 -1 -1 -1 -1 -1 -1 -1 -1 -1 -1 -1
4 4 9 12 16 17 15 10 9 7 6 6 7 6 6 6 4 3 1 1 0 0 -0 -0 -0 -0 -0 -0 -1 -0 -0 -1 -1 -1 -1 -1 -1 -1 -1 -1 -1 -1 -2 -2 -1 -1 -1 -1 -1
7 7 8 14 16 13 11 9 8 8 7 6 7 8 4 4 3 3 1 0 1 1 -0 -0 0 -0 -0 -1 -1 -0 -0 -0 -0 -1 -1 -1 -1 -1 -1 -1 -1 -1 -1 -2 -1 -1 -1 -0 -0
8 9 13 16 15 12 10 8 8 9 8 7 7 8 6 2 2 1 2 1 1 1 0 -0 0 -0 -0 -1 -1 -0 -0 -0 -0 -0 -1 -1 -1 -1 -1 -1 -1 -1 -1 -1 -1 -2 -1 -1 -0
11 10 16 15 13 11 9 8 8 8 7 6 7 7 6 3 2 2 1 1 0 1 0 -0 -0 -0 -0 -0 -0 -0 -0 -0 -0 -0 -0 -1 -1 -1 -1 -1 -1 -0 -1 -1 -1 -2 -2 -1 -1
11 13 14 14 13 12 10 7 8 7 7 7 6 8 6 4 2 1 1 1 1 0 0 0 0 -0 -0 0 0 0 -0 -0 -0 -0 -0 -0 -0 -0 -1 -1 -1 -1 -1 -1 -1 -2 -2 -1 -1
8 10 12 11 13 12 8 7 6 7 7 5 6 8 8 5 2 1 1 1 1 1 1 0 0 0 0 0 0 0 -0 -0 -0 -0 0 1 0 -0 -1 -1 -1 -1 -1 -1 -1 -1 -1 -1 -1
8 11 12 12 11 10 8 8 5 6 7 6 6 6 4 2 2 2 3 2 2 1 1 0 0 0 0 0 -0 -0 -0 -0 -0 -0 0 1 0 -0 -0 -0 -0 -1 -1 -1 -1 -1 -1 -1 -1
10 12 11 9 8 9 7 7 6 8 8 8 7 4 3 3 3 4 4 4 3 3 2 1 1 1 0 -0 0 0 0 0 0 0 1 1 1 0 -0 -0 -0 -0 -1 -1 -1 -1 -1 -1 -0
10 11 9 8 7 7 7 8 7 8 10 8 8 5 4 4 4 4 4 3 3 2 2 2 1 1 1 0 1 0 0 0 1 0 0 1 0 1 0 0 -0 -0 -0 -0 -0 -0 0 0 -0
12 10 8 8 7 8 8 7 8 8 8 6 6 5 4 5 5 4 4 3 3 2 2 1 1 1 1 0 0 0 1 1 1 1 0 1 0 1 1 0 0 0 0 0 0 0 0 0 -0
10 10 8 7 6 7 7 8 8 7 6 6 6 6 5 4 5 4 4 3 2 3 2 2 1 1 1 1 1 1 1 1 1 1 1 0 1 1 1 1 0 0 0 0 0 1 0 1 0
7 8 8 7 7 6 7 8 8 7 6 7 7 8 8 5 5 6 5 4 3 2 2 2 1 1 1 2 1 2 1 1 1 1 1 1 1 1 1 1 0 0 0 0 0 0 1 1 0
8 10 8 8 8 8 7 9 9 7 7 7 8 8 7 7 6 7 6 6 4 2 2 2 2 1 1 1 2 2 2 1 2 2 0 1 1 1 1 1 1 1 0 1 1 1 1 1 0
10 10 13 9 8 7 8 11 8 7 8 8 8 8 7 7 7 7 7 7 6 3 2 2 1 1 2 2 2 1 2 1 1 1 1 1 1 1 1 1 1 0 1 1 1 0 1 1 1
12 14 13 11 7 7 8 10 7 7 7 8 8 8 8 7 7 6 7 7 6 5 2 2 1 1 1 2 2 2 2 1 1 1 1 1 1 1 1 1 1 1 1 1 1 1 1 2 1
15 13 12 12 9 8 9 10 8 7 7 7 8 8 7 7 7 6 5 6 6 6 2 2 1 2 1 1 2 2 2 2 2 1 1 0 0 1 1 2 2 2 1 1 1 2 1 1 1
10 11 12 10 8 10 10 10 9 7 7 8 8 7 7 7 6 5 6 6 7 6 2 2 2 2 2 2 3 2 3 2 3 2 1 1 1 1 1 1 2 2 2 1 1 2 2 2 1
11 12 13 10 7 11 12 12 10 8 8 7 7 8 8 7 7 6 6 7 6 5 3 2 2 2 2 1 2 3 2 2 1 2 2 1 1 1 1 2 2 2 1 1 1 1 2 2 1
11 12 12 13 11 10 12 14 11 8 7 6 6 7 7 7 6 6 5 5 5 4 4 3 2 2 2 2 2 3 2 2 2 2 1 2 1 1 1 2 2 1 1 1 1 1 2 3 2
13 9 9 11 14 18 12 19 13 10 9 7 7 7 7 5 5 5 5 5 4 4 3 3 2 2 2 2 2 2 3 3 2 2 1 2 2 2 1 2 2 1 0 1 1 1 1 2 3
11 9 10 10 15 15 15 17 14 10 11 9 7 6 6 5 6 6 6 5 5 4 4 3 3 3 2 2 2 2 3 2 2 2 1 2 3 2 2 1 1 1 1 1 1 1 1 2 2
8 10 11 12 13 19 15 16 15 12 11 9 8 7 6 7 7 7 7 7 7 6 6 5 4 3 2 2 2 2 3 2 3 2 3 3 3 3 2 2 2 1 1 1 1 1 1 2 1
9 12 19 20 21 20 13 16 14 9 8 8 8 7 7 8 8 9 9 9 9 9 8 7 6 5 5 2 2 2 2 2 3 3 3 3 3 3 3 2 2 2 1 1 1 1 2 2 2
12 13 18 22 22 18 12 17 13 8 8 7 7 8 8 9 9 10 10 10 10 9 9 9 8 7 6 3 2 2 2 2 2 3 3 3 3 3 2 2 2 1 1 1 1 2 2 2 2
11 14 11 17 17 19 16 14 10 9 9 8 9 10 10 11 10 11 11 11 11 11 10 10 10 9 7 6 2 2 3 2 3 3 3 3 3 2 1 2 2 1 1 1 1 2 2 2 2
10 9 16 17 21 23 18 17 17 13 12 11 11 11 11 11 11 11 12 12 11 11 11 11 10 7 5 2 4 3 3 3 3 3 3 3 3 2 1 2 2 1 1 1 2 2 2 2 2
12 15 14 14 16 21 22 19 12 12 11 12 12 11 11 11 11 11 11 11 11 11 12 12 12 10 6 4 4 4 3 3 3 2 3 3 3 2 1 2 2 2 2 2 2 2 2 3 3
10 12 13 17 19 17 18 18 10 10 11 11 11 11 11 11 11 11 11 11 11 12 12 14 13 12 10 8 4 3 3 3 3 3 3 3 2 1 2 2 2 2 2 2 2 3 3 3 3

GFSSGP_con_lsi_108.txt.gz
Lid_Strength_Index
3 4 5 7 14 16 17 14 12 10 10 9 7 8 8 7 8 11 2 1 1 1 -0 -0 -0 -0 -0 -1 -1 -1 -1 -1 -1 -1 -1 -1 -1 -1 -1 -1 -1 -1 -1 -1 -1 -1 -1 -1 -1
5 4 7 10 16 19 17 13 11 9 8 7 6 7 7 8 5 5 3 1 0 0 -0 -0 -0 -0 -0 -0 -1 -1 -1 -1 -1 -1 -1 -1 -1 -1 -1 -1 -1 -1 -1 -2 -2 -1 -1 -1 -1
5 4 10 12 17 18 17 13 10 9 8 8 8 7 6 6 4 4 2 1 0 0 -0 -0 -0 -0 -0 -0 -0 -0 -0 -1 -1 -1 -1 -1 -1 -1 -1 -1 -1 -1 -2 -2 -1 -1 -1 -1 -1
8 7 9 15 16 15 13 12 10 10 8 8 8 9 5 4 4 2 1 1 1 0 -0 0 0 -0 -0 -0 -0 -0 -0 -0 -0 -1 -1 -1 -1 -1 -1 -1 -1 -1 -2 -2 -2 -1 -1 -1 -1
9 10 14 16 15 14 12 10 11 10 9 8 8 9 6 4 2 1 1 1 1 1 0 -0 0 0 -0 -1 -1 -0 -0 -0 -0 -1 -1 -1 -1 -1 -1 -1 -1 -1 -1 -1 -1 -1 -1 -1 -1
11 12 16 16 14 12 11 10 10 9 9 8 8 8 6 3 3 2 1 1 1 1 0 -0 -0 -0 -0 -0 -0 0 0 -0 -0 -0 -0 -1 -1 -1 -1 -1 -1 -1 -1 -1 -2 -1 -1 -1 -1
12 14 16 14 15 13 11 9 9 9 8 9 7 8 6 4 2 2 1 1 1 0 0 0 0 -0 0 0 0 1 0 0 0 -0 -0 -0 -0 -0 -1 -1 -0 -1 -1 -1 -2 -1 -1 -1 -1
9 11 14 13 13 13 10 8 8 8 8 5 7 9 8 5 3 2 1 1 2 1 0 0 0 0 0 0 0 0 0 0 0 0 0 0 0 -0 -0 -1 -1 -1 -1 -1 -2 -1 -1 -1 -1
9 14 13 13 12 11 8 9 6 6 8 7 7 7 4 3 2 3 3 2 2 1 1 1 1 1 1 1 -0 -0 -0 0 0 0 0 1 -0 0 -0 -0 -0 -1 -1 -1 -1 -1 -1 -1 -1
11 14 12 10 9 10 8 8 7 8 8 9 7 4 3 3 3 4 4 4 3 3 2 1 1 1 1 -0 0 1 0 1 1 1 1 1 1 0 -0 -0 -0 -1 -1 -1 -1 -1 -1 -1 0
12 12 9 8 8 8 9 9 7 8 9 9 9 5 4 4 4 4 4 4 3 2 2 1 1 0 0 0 1 1 1 1 1 1 1 1 1 0 0 -0 -0 -0 -0 -0 -0 0 0 0 1
14 12 10 10 8 8 9 8 8 9 8 6 6 5 4 5 5 4 4 4 3 3 2 1 1 1 1 1 1 1 1 1 1 1 1 1 1 1 1 0 0 0 0 1 1 1 1 1 0
12 12 10 10 10 9 7 8 8 8 7 6 6 6 7 4 4 4 3 3 3 3 2 1 1 1 1 1 1 0 1 1 1 1 1 1 1 2 1 1 1 0 1 1 1 2 1 1 1
10 10 9 8 9 9 10 9 8 7 6 7 7 8 5 8 7 6 4 3 3 2 2 1 1 1 1 1 1 1 1 1 1 1 1 1 1 1 1 1 1 1 1 1 1 1 1 2 1
11 13 11 11 10 9 8 11 11 8 7 7 7 8 8 6 6 6 6 4 3 2 2 2 2 1 1 1 1 1 1 1 1 1 1 1 1 1 1 1 1 1 0 0 1 2 1 2 1
13 13 16 12 10 9 9 12 9 7 8 8 8 8 8 8 6 6 6 6 5 2 2 2 1 2 1 1 2 2 1 1 2 1 1 1 1 1 1 1 1 1 1 1 1 1 1 1 1
15 18 16 15 10 10 10 11 9 7 7 8 8 9 8 8 8 7 7 8 8 2 2 2 2 2 1 1 2 2 2 2 1 2 2 1 1 1 1 1 1 1 1 1 1 1 1 1 1
15 15 14 14 11 10 11 10 9 7 6 7 7 8 9 9 8 7 7 7 7 5 2 2 2 2 1 2 2 3 2 2 1 2 2 1 1 1 2 2 1 1 1 1 1 1 1 2 2
11 13 13 12 11 10 10 10 9 8 7 7 7 9 8 7 7 7 6 7 7 7 2 2 2 2 2 2 3 3 3 3 2 1 1 1 1 2 2 2 2 2 2 1 1 1 2 2 2
10 12 13 11 9 10 11 12 10 8 8 8 8 8 8 8 7 6 6 6 6 6 2 2 2 2 2 1 1 2 2 3 3 2 2 1 1 1 2 2 2 2 2 2 2 1 2 2 1
11 13 12 13 10 10 11 13 11 8 7 7 6 6 6 6 6 5 5 5 5 4 6 3 3 2 2 2 2 3 4 4 3 3 2 2 1 1 1 1 2 2 2 2 2 1 2 3 2
13 9 11 12 12 16 12 18 13 10 10 8 7 7 6 6 6 7 7 7 7 6 6 7 3 2 2 3 2 3 3 3 2 2 2 2 2 2 1 2 2 2 1 1 1 1 1 2 3
11 9 11 11 12 13 14 18 15 11 12 10 8 7 8 8 8 9 9 9 9 8 8 7 9 7 5 2 2 3 3 2 3 3 3 2 2 2 1 2 2 2 1 1 1 1 1 2 2
8 11 11 12 13 17 13 17 16 13 11 10 8 9 9 10 10 10 10 9 10 9 9 8 8 8 8 6 2 2 3 3 3 3 3 2 1 1 1 2 1 1 1 1 1 1 1 1 1
10 13 19 20 20 20 13 17 14 11 10 9 10 11 11 11 12 12 12 12 11 11 10 9 9 9 8 8 6 2 3 3 3 3 2 2 2 2 2 1 2 1 2 1 1 1 1 1 2
13 13 17 23 22 19 13 18 15 10 9 10 11 12 12 12 12 13 13 12 12 11 11 11 10 10 9 8 7 2 2 3 3 2 2 3 3 2 3 3 3 2 2 1 1 1 1 1 2
12 15 11 16 16 19 16 14 12 10 10 12 13 13 13 13 13 13 12 12 12 12 12 11 11 10 9 8 7 4 2 2 2 3 3 3 3 3 3 3 3 3 2 1 1 1 1 1 2
11 10 15 16 22 24 18 18 17 14 13 13 14 13 13 13 13 13 13 13 12 12 12 11 11 11 10 8 5 3 2 2 3 3 3 3 3 4 4 3 3 1 2 1 1 1 1 1 2
12 14 14 13 16 21 22 19 12 13 13 14 14 13 13 13 13 13 13 13 13 12 12 11 11 12 11 9 5 3 3 3 4 3 3 4 4 4 4 4 1 2 2 1 1 1 1 2 2
11 13 12 17 18 17 18 18 12 11 13 13 13 13 14 13 13 13 13 13 12 12 12 12 12 13 12 10 9 4 4 4 4 3 3 4 4 3 4 4 2 2 2 2 3 2 2 2 2